COSMOS 2251 DEB, 36367

Orbit data source: Space-Track

COSMOS 2251 DEB, 36367 is space debris in LEO originally from a launch on Wed, 16 Jun 1993 UTC launched from the Plesetsk Missile And Space Complex (PKMTR). The debris from Iridium 33, an American commercial communications satellite, has been tracked extensively since its accidental collision with the defunct Russian satellite Cosmos 2251 in 2009. This event, occurring at high speed in low Earth orbit (LEO), generated thousands of pieces of space debris, significantly increasing the risk of further collisions. The Iridium 33 debris cloud has impacted space traffic management and orbital debris mitigation strategies, making it a subject of ongoing study in space situational awareness.

Loading next visibility...
Identifier
36367, 1993-036AYU
Orbit
LEO
Country
Flag of CISCIS
Related business
Manufacturer
Unknown
Mission
Spacecraft
Bus & Motor
Unknown
Mass
Unknown
Launch date (UTC)
1993-06-16 (33 years ago)
Launch vehicle
Unknown
Launch site
Plesetsk Missile And Space Complex (PKMTR)
Object type
Payload
Rocket body
Debris
Shape & HBR
Unknown shape, 0.1 m
Radar Cross Section
Medium (>0.1 m² and <1 m²)

Expand to show TLE details & history
Last TLE update: 2 days ago

TLE from 2 days ago
0 COSMOS 2251 DEB
1 36367U 93036AYU 26174.53242559  .00000780  00000-0  52440-3 0  9994
2 36367  74.0984 266.0045 0262339 293.2496  64.1207 13.86986836602020
Epoch: 2026-06-23T12:46Z
TLE epoch observation values (Epoch: 2026-06-23T12:46:41.570Z)
Latitude
-0.00011°
Longitude
162.62862°
Altitude
862.114 km
Speed
7.462 km/s
True Right ascension
17h 44m 01s
True Declination
0° 00' 00"
Sunlit
Object was in full shadow at epoch
Visualization orbit readout
Latitude
Unknown
Longitude
Unknown
Altitude
Unknown
Speed
Unknown
Apparent Right ascension
Unknown
Apparent Declination
Unknown
Sunlit
N/A
Visualization observer readout
Local Sidereal Time
22:44:57
Azimuth
Unknown
Elevation
Unknown
Doppler factor
Unknown
Orbital elements
Apogee altitude
1,128.782 km
Perigee altitude
744.979 km
Semi-major axis
7,315.017 km
Eccentricity
0.02623
Inclination
74.0984°
RAAN
266.0045°
Arg. of periapsis
293.2496°
True anomaly
66.86361°
Mean anomaly
64.1207°
Eccentric anomaly
65.48833°
Mean motion
3.46913 °/min
Orbital period
103.77 mins
BSTAR
0.0005244
Loading maneuver chart data...
Computing Atmospheric mass density...

Documentation

Showing up to 5 results
|